SCP
0 0 0 0 0 0 0 0 0 0 0 0 0 0 0 0 0 0 0 0 0 0 0 0 0 0 0 0 0 0 0 0 0 0 0 0 0 0 0 0 0 0 0 0
0 0 0 0 0 0 0 0 0 0 0 0 0 0 0 0 0 0 0 0 0 0 0 0 0 0 0 0 0 0 0 0 0 0 0 0 0 0 0 0 0 0 0 0
0 0 0 0 0 0 0 0 0 0 0 0 0 0 0 0 0 0 0 0 0 0 0 0 0 0 0 0 0 0 0 0 0 0 0 0 0 0 0 0 0 0 0 0
0 0 0 0 0 0 0 0 0 0 0 0 0 0 0 0 0 0 0 0 0 0 0 0 0 0 0 0 0 0 0 0 0 0 0 0 0 0 0 0 0 0 0 0
0 0 0 0 0 0 0 0 0 0 0 0 0 0 0 0 0 0 0 0 0 0 0 0 0 0 0 0 0 0 0 0 0 0 0 0 0 0 0 0 0 0 0 0
0 0 0 0 0 0 0 0 0 0 0 0 0 0 0 0 0 0 0 0 0 0 0 0 0 0 0 0 0 0 0 0 0 0 0 0 0 0 0 1 1 1 0 0
0 0 0 0 0 0 0 0 0 0 0 0 0 0 0 0 0 0 0 0 0 0 0 0 0 0 0 0 0 1 1 0 0 0 0 0 0 0 0 0 1 1 1 1
0 0 0 0 0 0 0 0 0 0 0 0 0 0 0 0 0 0 0 0 0 0 0 0 0 0 0 0 0 1 1 1 0 0 0 0 0 0 0 0 0 0 0 0
0 0 0 0 0 0 0 0 0 0 0 0 0 0 0 0 0 0 0 0 0 0 0 0 0 0 0 0 0 1 1 1 1 1 0 0 0 0 0 0 0 0 0 0
0 0 0 0 0 0 0 0 0 0 0 0 0 0 0 0 0 0 0 0 0 0 0 0 0 0 0 0 0 0 1 1 1 1 1 1 1 1 0 0 0 0 0 0
0 0 0 0 0 0 0 0 0 0 0 0 0 0 0 0 0 0 0 0 0 0 0 0 0 0 0 0 0 0 0 1 1 1 1 1 1 1 0 0 0 0 1 1
0 0 0 0 0 0 0 0 0 0 0 0 0 0 0 0 0 0 0 0 0 0 0 0 0 0 0 0 0 0 0 0 0 1 1 1 1 1 0 0 0 0 1 1
0 0 0 0 0 0 0 0 0 0 0 0 0 0 0 0 0 0 0 0 0 0 0 0 0 0 0 0 0 0 0 0 0 0 1 1 1 1 0 0 0 0 0 1
0 0 0 0 0 0 0 0 0 0 0 0 0 0 0 0 0 0 0 0 0 0 0 0 0 0 0 0 0 0 0 0 0 0 0 0 0 0 0 0 0 0 0 0
0 0 0 0 0 0 0 0 0 0 0 0 0 0 0 0 0 0 0 0 0 0 0 0 0 0 0 0 0 0 0 0 0 0 0 0 0 0 0 0 0 0 0 0
0 0 0 0 0 0 0 0 0 0 0 0 0 0 0 0 0 0 0 0 0 0 0 0 0 0 0 0 0 0 0 0 0 0 0 0 0 0 0 0 0 0 0 0
0 0 0 0 0 0 0 0 0 0 0 0 0 0 0 0 0 0 0 0 0 0 0 0 0 0 0 0 0 0 0 0 0 0 0 0 0 0 0 0 0 0 0 0
0 0 0 0 0 0 0 0 0 0 0 0 0 0 0 0 0 0 0 0 0 0 0 0 0 0 0 0 0 0 0 0 0 0 0 0 0 0 0 0 0 0 0 0
0 0 0 0 0 0 0 0 0 0 0 0 0 0 0 0 0 0 0 0 0 0 0 0 0 0 0 0 0 0 0 0 0 0 0 0 0 0 0 0 0 0 0 0
0 0 0 0 0 0 0 0 0 0 0 0 0 0 0 0 0 0 0 0 0 0 0 0 0 0 0 0 0 0 0 0 0 0 0 0 0 0 0 0 0 0 0 0
0 0 0 0 0 0 0 0 0 0 0 0 0 0 0 0 0 0 0 0 0 0 0 0 0 0 0 0 0 0 0 0 0 0 0 0 0 0 0 0 0 0 0 0
0 0 0 0 0 0 0 0 0 0 0 0 0 0 0 0 0 0 0 0 0 0 0 0 0 0 0 0 0 0 0 0 0 0 0 0 0 0 0 0 0 0 0 0
0 0 0 0 0 0 0 0 0 0 0 0 0 0 0 0 0 0 0 0 0 0 0 0 0 0 0 0 0 0 0 0 0 0 0 0 0 0 0 0 0 0 0 0
0 0 0 0 0 0 0 0 0 0 0 0 0 0 0 0 0 0 0 0 0 0 0 0 0 0 0 0 0 0 0 0 0 0 0 0 0 0 0 0 0 0 0 0
0 0 0 0 0 0 0 0 0 0 0 0 0 0 0 0 0 0 0 0 0 0 0 0 0 0 0 0 0 0 0 0 0 0 0 0 0 0 0 0 0 0 0 0
0 0 0 0 0 0 0 0 0 0 0 0 0 0 0 0 0 0 0 0 0 0 0 0 0 0 0 0 0 0 0 0 0 0 0 0 0 0 0 0 0 0 0 0
Wind_Speed
9 9 15 16 18 14 10 11 12 10 7 9 13 15 14 11 11 10 10 10 10 10 10 11 11 11 11 12 13 14 14 13 11 9 9 8 8 7 6 6 7 8 8 9
9 19 18 14 15 16 16 14 13 8 4 5 9 14 13 13 14 12 12 12 11 10 9 11 12 12 13 13 14 14 15 15 13 11 9 6 6 6 7 6 7 9 9 9
19 12 14 16 15 17 17 15 12 8 2 4 6 11 15 15 15 14 13 12 12 12 11 11 13 14 14 14 15 14 15 15 15 12 8 6 6 5 7 8 8 9 10 10
18 15 14 15 17 16 16 12 10 8 5 6 7 9 10 13 16 18 16 14 13 12 11 11 12 14 15 16 14 14 14 14 15 14 12 12 11 10 10 8 8 9 10 10
13 13 17 19 18 15 8 4 7 8 7 8 8 9 8 9 14 16 16 16 15 13 13 12 13 15 14 14 13 13 13 14 14 14 15 14 12 9 6 7 9 10 10 11
12 8 12 14 11 10 5 3 1 2 4 11 13 11 10 9 12 11 13 15 15 14 13 12 11 11 12 11 11 12 13 13 13 15 15 15 14 11 9 10 10 9 7 9
11 12 8 7 10 10 9 8 4 6 8 11 9 11 12 8 8 9 9 10 11 11 10 10 10 11 11 12 12 12 13 13 14 15 15 15 14 13 13 11 10 9 8 8
13 13 15 12 14 12 15 14 10 8 8 5 6 12 10 6 4 3 3 4 4 6 6 7 8 8 9 11 11 11 12 12 12 13 14 13 13 10 9 10 8 9 8 8
12 11 12 15 11 13 14 15 9 3 1 3 7 7 8 6 5 5 6 5 7 7 6 6 6 6 7 9 10 11 11 10 10 11 11 11 12 11 10 8 8 6 6 7
7 6 10 10 8 11 11 10 6 7 7 7 7 9 8 7 10 10 9 9 9 7 6 6 6 6 6 7 7 8 9 10 9 8 9 8 9 10 9 7 8 7 7 7
8 6 7 9 16 18 13 15 10 8 6 6 6 8 7 9 9 9 9 8 7 6 6 5 4 4 4 4 5 5 6 6 7 7 7 7 7 8 8 7 7 7 6 7
9 5 7 12 8 10 14 15 15 10 8 7 5 8 2 2 3 4 4 4 4 5 4 5 5 4 4 4 4 4 4 5 5 5 5 6 6 6 7 7 6 6 6 7
9 7 7 6 7 9 14 15 17 11 5 6 7 10 3 2 2 3 4 4 4 4 4 4 4 5 5 5 5 4 4 4 4 5 5 5 5 6 6 6 5 5 6 6
9 7 9 13 9 11 14 16 17 15 10 10 13 12 7 4 4 3 4 4 4 4 4 4 4 5 5 5 5 5 5 5 4 4 5 5 5 5 5 4 5 5 5 6
8 7 8 8 6 10 11 17 20 22 19 14 14 16 15 8 5 5 5 5 5 5 5 5 5 5 5 5 4 4 5 5 5 5 5 5 4 4 5 4 4 4 4 5
8 6 5 7 7 9 11 17 21 24 22 20 15 16 12 8 5 5 5 5 5 5 5 6 5 5 6 6 6 5 5 5 5 5 5 4 5 5 5 5 5 5 5 5
8 7 7 7 5 4 14 21 23 22 21 21 24 23 9 7 8 8 6 6 6 6 5 6 5 5 5 6 6 6 6 6 6 5 4 5 5 5 4 5 5 5 4 5
8 7 4 4 6 14 13 13 18 22 23 22 19 13 12 12 9 7 7 7 7 6 5 5 4 4 4 4 5 5 5 6 6 5 5 5 5 5 5 5 5 4 4 4
11 8 5 5 8 10 9 11 18 20 21 20 20 16 11 7 5 8 8 7 7 6 5 4 4 4 4 5 5 6 6 5 6 5 5 5 6 6 5 5 5 4 4 4
11 9 7 7 8 13 11 9 10 10 18 14 14 15 13 10 11 11 6 6 4 3 3 3 4 4 4 4 6 7 6 6 5 5 5 5 5 6 6 5 5 4 4 5
11 10 13 10 9 10 6 6 10 14 15 7 11 12 12 14 13 5 5 4 4 4 4 4 5 4 3 4 6 7 5 4 4 5 5 5 5 5 6 5 5 5 5 6
13 10 11 9 10 12 4 8 12 8 2 3 5 7 8 8 5 5 5 5 5 5 5 5 6 5 4 4 6 6 5 4 5 6 6 5 5 5 5 6 6 5 6 6
11 10 6 9 9 2 4 5 3 1 2 1 2 2 3 4 5 5 5 5 5 5 5 5 6 6 5 4 5 6 4 5 6 6 6 6 6 5 5 6 6 5 4 4
4 4 5 5 5 2 1 1 2 2 1 1 0 1 3 4 5 5 6 5 5 5 5 5 6 6 5 5 5 5 5 5 6 6 6 5 5 5 5 4 4 4 4 4
4 4 5 7 3 2 3 2 1 0 2 2 3 2 2 5 5 5 5 5 5 5 5 5 6 6 5 5 5 5 4 5 6 6 5 5 5 5 5 4 3 3 2 3
3 4 7 7 5 5 5 3 2 2 1 1 2 3 4 4 6 6 6 5 5 6 5 6 6 6 6 6 6 5 4 4 6 6 5 4 4 4 4 4 4 6 5 5
Wind_Direction
183 199 210 208 214 235 242 233 236 238 219 215 230 239 241 236 239 237 231 232 223 215 204 189 185 183 181 182 182 184 184 184 180 183 187 190 193 192 196 196 193 189 186 186
189 219 219 217 220 230 243 247 247 255 218 223 251 252 245 237 234 229 226 229 229 219 208 188 182 181 185 188 188 187 187 186 186 188 189 189 184 195 198 198 200 198 193 190
212 215 205 216 221 224 232 236 241 246 262 258 276 268 246 243 238 237 231 227 227 220 211 194 185 186 188 193 194 192 190 188 188 183 180 181 185 188 195 201 204 204 198 195
226 226 213 214 219 218 232 228 239 246 229 241 213 266 242 230 230 229 227 226 227 224 214 200 189 190 192 197 195 194 191 189 187 182 185 187 192 198 199 195 198 198 200 201
216 208 209 216 216 212 226 204 226 236 237 257 231 254 260 230 230 223 220 220 222 222 214 207 196 195 195 192 191 193 192 192 188 186 190 193 202 203 193 189 193 197 200 202
230 220 215 218 213 205 177 143 164 248 235 245 229 235 263 226 231 224 217 214 216 217 215 209 200 190 190 186 186 189 194 196 191 190 193 198 203 200 194 194 195 197 197 200
217 225 216 192 185 182 169 165 177 200 215 237 205 221 249 231 232 221 219 214 209 209 206 205 200 189 186 184 186 188 193 199 195 194 198 202 204 203 205 201 199 194 195 198
200 211 199 195 194 184 190 191 191 198 209 229 193 224 247 239 235 229 232 218 211 208 202 202 197 188 183 184 184 187 193 200 197 198 202 203 203 206 211 207 200 198 198 196
203 213 185 195 187 175 184 207 217 231 216 239 230 241 257 232 234 232 236 236 232 228 215 202 193 185 181 182 185 188 192 198 200 200 200 201 202 206 210 205 201 196 191 186
200 215 183 182 179 202 195 179 185 201 200 226 238 226 227 203 216 223 222 223 228 219 208 200 194 190 185 182 183 185 191 196 198 198 198 199 201 205 206 202 201 195 187 181
210 204 184 179 194 189 185 191 191 194 208 205 234 243 211 204 203 206 212 213 210 202 197 191 181 173 160 158 167 181 187 187 190 194 192 191 194 195 197 201 200 191 185 182
193 187 202 208 209 203 202 199 194 193 206 215 233 258 254 195 179 183 196 192 184 179 174 162 155 151 157 166 170 178 181 181 187 185 184 187 185 184 189 196 193 186 185 179
163 173 173 191 208 210 214 211 208 215 205 208 217 252 227 217 218 205 198 188 176 172 164 154 158 167 176 178 176 176 178 178 175 170 174 177 179 181 184 185 180 176 174 170
168 193 200 203 201 186 199 206 207 208 217 223 225 240 243 227 223 210 194 188 177 176 172 172 179 181 179 177 176 175 174 168 164 162 166 170 174 173 170 162 160 163 163 162
177 209 226 240 224 191 204 203 206 214 217 219 226 232 242 234 224 213 196 188 175 181 186 189 189 185 176 175 175 168 160 156 155 158 164 165 148 139 137 136 138 135 137 143
184 198 207 239 237 211 216 213 211 218 223 232 241 244 236 230 224 220 206 194 204 208 204 197 191 183 181 180 176 169 164 161 156 159 159 144 133 129 130 130 128 128 129 127
183 177 186 221 219 218 228 211 211 219 223 223 233 239 235 235 226 224 215 205 210 213 208 197 194 191 186 182 173 171 164 152 150 147 138 132 131 130 128 126 126 131 130 125
188 181 185 180 176 226 236 204 209 220 227 225 232 235 224 224 225 225 214 203 211 210 205 197 185 178 167 157 154 148 141 141 140 137 137 136 136 133 129 127 129 124 118 124
193 185 189 190 214 246 251 204 202 211 231 225 230 232 227 214 229 242 224 206 203 201 193 181 166 157 142 142 140 132 133 134 136 145 149 147 142 138 137 136 133 125 123 120
196 190 197 200 212 227 232 198 188 196 242 226 222 227 220 197 225 238 204 197 192 160 148 138 125 118 125 129 128 133 141 141 150 151 146 141 140 143 144 138 127 118 120 120
185 195 207 213 226 248 239 187 153 190 234 211 210 220 212 209 222 206 147 149 137 120 106 106 106 105 113 120 124 132 135 147 141 127 124 124 127 131 131 124 119 121 120 118
184 192 201 201 223 238 215 158 178 207 207 174 199 211 207 209 184 142 134 130 122 111 96 97 102 93 80 99 120 124 127 121 115 116 117 116 115 116 120 122 121 122 126 124
192 193 191 203 218 206 163 174 193 132 166 162 189 227 185 181 167 148 136 128 118 111 104 98 106 99 77 73 100 116 109 110 115 116 118 116 114 113 119 125 129 128 130 131
212 185 184 212 228 194 185 67 31 35 44 349 174 189 152 154 148 138 130 125 116 109 107 106 109 106 89 70 72 83 96 107 115 117 115 115 117 116 113 115 125 134 142 143
195 179 198 219 222 174 209 207 223 110 60 52 41 55 121 130 129 133 132 126 118 108 100 104 109 107 99 88 77 71 85 105 113 112 109 110 109 114 108 100 104 120 121 149
182 188 199 215 191 195 216 220 185 157 156 129 104 72 66 107 126 122 120 115 113 109 102 99 97 99 95 90 79 64 67 96 112 112 108 106 107 105 106 107 88 78 92 96